sat.trackr.live / text

‹ back to catalog

STARLINK-6152

NORAD 57121 · 2023-090W

PAYLOAD ACTIVE UNKNOWN

§ Identity

Operator
Country
US
Launch date
2023-06-23
Launch site
AFETR
Launch vehicle
Mass (kg)
RCS (m²)

Purposes: comms

External: N2YO · Heavens-Above · Gunter

§ Orbital elements

Epoch: 2026-09-20T23:32:52.190304Z

Period
94.27 min
Inclination
43.0039°
Eccentricity
0.0001463
Mean motion
15.27572975 rev/d
Perigee alt
482.1 km
Apogee alt
484.1 km
Semi-major
6,861.2 km
B*
-2.0847e-5
RAAN
258.3058°
Arg perigee
279.0820°
Mean anomaly
80.9866°
Rev number
18,001

§ Raw data

STARLINK-61521 57121U 23090W   26263.98115961 -.00000836  00000+0 -20847-4 0  99922 57121  43.0039 258.3058 0001463 279.0820  80.9866 15.27572975180017

JSON: /api/v1/satellites/57121 · /tle

For live sub-satellite position, see the globe view (requires WebGL).

§ Visibility from observer

Set your observer location to see the next 7 days of passes ≥ 10°. The values pass through the URL so the page stays shareable.

No JS? Fill the form by hand. The geolocation button needs JavaScript.